This is the latest recevied weather packets stored in our database for station/object W4SKW. If no packets are shown the sender has not sent any weather packets the latest 10 day(s).
| Time | Temp. | Humidity | Pressure | Rain* | Wind** | Luminosity | Snow |
|---|---|---|---|---|---|---|---|
| 1777626934 | 12.22° C | 67% | 1014.7 hPa | 0 mm | - | 0 W/m² | - |
| 1777626631 | 12.78° C | 68% | 1014.8 hPa | 0 mm | - | 0 W/m² | - |
| 1777626326 | 12.22° C | 65% | 1014.7 hPa | 0 mm | - | 0 W/m² | - |
| 1777626025 | 12.22° C | 67% | 1014.6 hPa | 0 mm | - | 0 W/m² | - |
| 1777625720 | 12.78° C | 65% | 1014.6 hPa | 0 mm | - | 0 W/m² | - |
| 1777625416 | 12.78° C | 69% | 1014.8 hPa | 0 mm | - | 0 W/m² | - |
| 1777625112 | 12.78° C | 71% | 1014.6 hPa | 0 mm | - | 0 W/m² | - |
| 1777624809 | 12.78° C | 67% | 1014.7 hPa | 0 mm | - | 0 W/m² | - |
| 1777624504 | 12.78° C | 64% | 1014.9 hPa | 0 mm | - | 0 W/m² | - |
| 1777624204 | 12.78° C | 64% | 1014.9 hPa | 0 mm | - | 0 W/m² | - |
| 1777623898 | 12.78° C | 68% | 1014.6 hPa | 0 mm | - | 0 W/m² | - |
| 1777623594 | 12.78° C | 69% | 1014.5 hPa | 0 mm | - | 0 W/m² | - |
| 1777623293 | 12.78° C | 65% | 1014.6 hPa | 0 mm | - | 0 W/m² | - |
| 1777622989 | 12.78° C | 63% | 1014.6 hPa | 0 mm | - | 0 W/m² | - |
| 1777622686 | 12.78° C | 65% | 1014.6 hPa | 0 mm | - | 0 W/m² | - |
| 1777622382 | 12.78° C | 66% | 1014.7 hPa | 0 mm | - | 0 W/m² | - |
| 1777622079 | 12.78° C | 66% | 1014.7 hPa | 0 mm | - | 0 W/m² | - |
| 1777621774 | 12.78° C | 68% | 1014.5 hPa | 0 mm | - | 0 W/m² | - |
| 1777621472 | 12.78° C | 68% | 1014.7 hPa | 0 mm | - | 0 W/m² | - |
| 1777621167 | 12.78° C | 66% | 1014.6 hPa | 0 mm | - | 0 W/m² | - |
| 1777620863 | 12.78° C | 69% | 1014.5 hPa | 0 mm | - | 0 W/m² | - |
| 1777620560 | 12.78° C | 67% | 1014.7 hPa | 0 mm | - | 0 W/m² | - |
| 1777620256 | 12.78° C | 67% | 1014.7 hPa | 0 mm | - | 0 W/m² | - |
| 1777619953 | 12.78° C | 67% | 1014.7 hPa | 0 mm | - | 0 W/m² | - |
| 1777619648 | 12.78° C | 64% | 1014.7 hPa | 0 mm | - | 0 W/m² | - |
* Rain latest hour (hover to see other rain measurements)
** Current wind speed in m/s (hover to see current wind gust speed)